Time,TemperatureF,DewpointF,PressureIn,WindDirection,WindDirectionDegrees,WindSpeedMPH,WindSpeedGustMPH,Humidity,HourlyPrecipIn,Conditions,Clouds,dailyrainin,SoftwareType,DateUTC
2013-04-01 00:02:00,56.0,53.0,30.09,SW,222,0.0,3.0,89,0.00,,,0.02,,2013-04-01 07:02:00,
2013-04-01 00:12:00,56.0,53.0,30.09,SW,222,0.0,3.0,89,0.00,,,0.02,,2013-04-01 07:12:00,
2013-04-01 00:21:00,56.0,53.0,30.09,SW,223,0.0,2.0,89,0.00,,,0.02,,2013-04-01 07:21:00,
2013-04-01 00:31:00,56.0,53.0,30.09,SW,225,0.0,3.0,89,0.00,,,0.02,,2013-04-01 07:31:00,
2013-04-01 00:42:00,56.0,53.0,30.09,SW,225,0.0,3.0,89,0.00,,,0.02,,2013-04-01 07:42:00,
2013-04-01 00:52:00,56.0,53.0,30.09,SW,225,0.0,2.0,89,0.00,,,0.02,,2013-04-01 07:52:00,
2013-04-01 01:02:00,56.0,52.0,30.09,SW,225,0.0,2.0,88,0.00,,,0.02,,2013-04-01 08:02:00,
2013-04-01 01:12:00,56.0,52.0,30.09,SW,225,0.0,2.0,88,0.00,,,0.02,,2013-04-01 08:12:00,
2013-04-01 01:21:00,56.0,52.0,30.09,SW,226,0.0,3.0,88,0.00,,,0.02,,2013-04-01 08:21:00,
2013-04-01 01:31:00,56.0,52.0,30.09,SW,226,0.0,2.0,88,0.00,,,0.02,,2013-04-01 08:31:00,
2013-04-01 01:42:00,56.0,52.0,30.09,SW,226,0.0,2.0,88,0.00,,,0.02,,2013-04-01 08:42:00,
2013-04-01 01:52:00,56.0,52.0,30.09,SW,226,0.0,3.0,88,0.00,,,0.02,,2013-04-01 08:52:00,
2013-04-01 02:02:00,56.0,52.0,30.09,SW,226,0.0,1.0,88,0.00,,,0.02,,2013-04-01 09:02:00,
2013-04-01 02:11:00,56.0,52.0,30.09,SW,226,0.0,1.0,88,0.00,,,0.02,,2013-04-01 09:11:00,
2013-04-01 02:21:00,56.0,52.0,30.09,SW,226,0.0,2.0,87,0.00,,,0.02,,2013-04-01 09:21:00,
2013-04-01 02:32:00,56.0,52.0,30.09,SW,226,0.0,3.0,86,0.00,,,0.02,,2013-04-01 09:32:00,
2013-04-01 02:42:00,56.0,52.0,30.09,SW,226,0.0,3.0,86,0.00,,,0.02,,2013-04-01 09:42:00,
2013-04-01 02:53:00,56.0,52.0,30.08,SW,225,0.0,3.0,86,0.00,,,0.02,,2013-04-01 09:53:00,
2013-04-01 03:02:00,56.0,52.0,30.08,SW,225,0.0,2.0,86,0.00,,,0.02,,2013-04-01 10:02:00,
2013-04-01 03:12:00,56.0,52.0,30.08,SW,225,0.0,2.0,86,0.00,,,0.02,,2013-04-01 10:12:00,
2013-04-01 03:22:00,56.0,52.0,30.08,SW,225,0.0,1.0,85,0.00,,,0.02,,2013-04-01 10:22:00,
2013-04-01 03:32:00,56.0,52.0,30.08,SW,225,0.0,2.0,85,0.00,,,0.02,,2013-04-01 10:32:00,
2013-04-01 03:42:00,56.0,52.0,30.08,SW,225,0.0,2.0,85,0.00,,,0.02,,2013-04-01 10:42:00,
2013-04-01 03:53:00,56.0,52.0,30.08,SW,225,0.0,2.0,85,0.00,,,0.02,,2013-04-01 10:53:00,
2013-04-01 04:02:00,56.0,52.0,30.08,SW,225,0.0,2.0,85,0.00,,,0.02,,2013-04-01 11:02:00,
2013-04-01 04:12:00,56.0,52.0,30.08,SW,225,0.0,2.0,85,0.00,,,0.02,,2013-04-01 11:12:00,
2013-04-01 04:22:00,56.0,52.0,30.08,SW,225,0.0,2.0,86,0.00,,,0.02,,2013-04-01 11:22:00,
2013-04-01 04:32:00,56.0,52.0,30.08,SW,225,0.0,2.0,86,0.00,,,0.02,,2013-04-01 11:32:00,
2013-04-01 04:42:00,56.0,52.0,30.08,SW,225,0.0,2.0,86,0.00,,,0.02,,2013-04-01 11:42:00,
2013-04-01 04:53:00,56.0,52.0,30.08,SW,226,0.0,0.0,85,0.00,,,0.02,,2013-04-01 11:53:00,
2013-04-01 05:02:00,56.0,52.0,30.08,SW,226,0.0,0.0,85,0.00,,,0.02,,2013-04-01 12:02:00,
2013-04-01 05:11:00,56.0,52.0,30.08,SW,226,0.0,0.0,85,0.00,,,0.02,,2013-04-01 12:11:00,
2013-04-01 05:22:00,56.0,52.0,30.09,SW,225,0.0,0.0,85,0.00,,,0.02,,2013-04-01 12:22:00,
2013-04-01 05:32:00,56.0,52.0,30.09,SW,226,0.0,0.0,86,0.00,,,0.02,,2013-04-01 12:32:00,
2013-04-01 05:42:00,56.0,52.0,30.09,SW,226,0.0,0.0,86,0.00,,,0.02,,2013-04-01 12:42:00,
2013-04-01 05:52:00,55.0,51.0,30.09,SW,225,0.0,0.0,86,0.00,,,0.02,,2013-04-01 12:52:00,
2013-04-01 06:02:00,55.0,51.0,30.09,SW,226,0.0,0.0,85,0.00,,,0.02,,2013-04-01 13:02:00,
2013-04-01 06:11:00,55.0,51.0,30.09,SW,226,0.0,0.0,85,0.00,,,0.02,,2013-04-01 13:11:00,
2013-04-01 06:21:00,54.0,50.0,30.09,SW,225,0.0,0.0,86,0.00,,,0.02,,2013-04-01 13:21:00,
2013-04-01 06:32:00,54.0,50.0,30.10,SW,225,0.0,0.0,87,0.00,,,0.02,,2013-04-01 13:32:00,
2013-04-01 06:42:00,54.0,50.0,30.10,SW,225,0.0,0.0,87,0.00,,,0.02,,2013-04-01 13:42:00,
2013-04-01 06:52:00,54.0,50.0,30.10,SW,225,0.0,0.0,87,0.00,,,0.02,,2013-04-01 13:52:00,
2013-04-01 07:02:00,52.0,48.0,30.11,SW,225,0.0,0.0,86,0.00,,,0.02,,2013-04-01 14:02:00,
2013-04-01 07:11:00,52.0,48.0,30.11,SW,225,0.0,0.0,86,0.00,,,0.02,,2013-04-01 14:11:00,
2013-04-01 07:22:00,52.0,48.0,30.11,SW,226,0.0,0.0,87,0.00,,,0.02,,2013-04-01 14:22:00,
2013-04-01 07:32:00,51.0,48.0,30.12,SW,225,0.0,0.0,88,0.00,,,0.02,,2013-04-01 14:32:00,
2013-04-01 07:42:00,51.0,48.0,30.12,SW,225,0.0,0.0,88,0.00,,,0.02,,2013-04-01 14:42:00,
2013-04-01 07:52:00,52.0,49.0,30.12,SW,225,0.0,0.0,89,0.00,,,0.02,,2013-04-01 14:52:00,
2013-04-01 08:01:00,54.0,50.0,30.13,SW,225,0.0,2.0,87,0.00,,,0.02,,2013-04-01 15:01:00,
2013-04-01 08:12:00,54.0,50.0,30.13,SW,225,0.0,2.0,87,0.00,,,0.02,,2013-04-01 15:12:00,
2013-04-01 08:22:00,55.0,51.0,30.14,SW,225,0.0,1.0,86,0.00,,,0.02,,2013-04-01 15:22:00,
2013-04-01 08:33:00,56.0,52.0,30.14,SW,225,0.0,0.0,85,0.00,,,0.02,,2013-04-01 15:33:00,
2013-04-01 08:42:00,56.0,52.0,30.14,SW,225,0.0,0.0,85,0.00,,,0.02,,2013-04-01 15:42:00,
2013-04-01 08:53:00,58.0,52.0,30.14,SW,225,0.0,1.0,81,0.00,,,0.02,,2013-04-01 15:53:00,
2013-04-01 09:02:00,60.0,52.0,30.14,SW,225,0.0,1.0,75,0.00,,,0.02,,2013-04-01 16:02:00,
2013-04-01 09:12:00,60.0,52.0,30.14,SW,225,0.0,1.0,75,0.00,,,0.02,,2013-04-01 16:12:00,
2013-04-01 09:22:00,62.0,52.0,30.14,SE,138,0.0,3.0,71,0.00,,,0.02,,2013-04-01 16:22:00,
2013-04-01 09:32:00,62.0,52.0,30.14,SE,128,1.0,3.0,70,0.00,,,0.02,,2013-04-01 16:32:00,
2013-04-01 09:52:00,63.0,52.0,30.14,ESE,123,0.0,3.0,67,0.00,,,0.02,,2013-04-01 16:52:00,
2013-04-01 10:02:00,62.0,50.0,30.14,SSE,162,0.0,5.0,65,0.00,,,0.02,,2013-04-01 17:02:00,
2013-04-01 10:12:00,62.0,50.0,30.14,SSE,162,0.0,5.0,65,0.00,,,0.02,,2013-04-01 17:12:00,
2013-04-01 10:22:00,63.0,50.0,30.14,South,189,0.0,1.0,63,0.00,,,0.02,,2013-04-01 17:22:00,
2013-04-01 10:31:00,63.0,50.0,30.14,South,189,0.0,1.0,63,0.00,,,0.02,,2013-04-01 17:31:00,
2013-04-01 10:41:00,63.0,50.0,30.14,South,189,0.0,1.0,63,0.00,,,0.02,,2013-04-01 17:41:00,
2013-04-01 10:52:00,65.0,51.0,30.14,SSW,192,2.0,6.0,60,0.00,,,0.02,,2013-04-01 17:52:00,
2013-04-01 11:02:00,66.0,52.0,30.14,SW,223,3.0,8.0,60,0.00,,,0.02,,2013-04-01 18:02:00,
2013-04-01 11:12:00,66.0,52.0,30.14,SW,223,3.0,8.0,60,0.00,,,0.02,,2013-04-01 18:12:00,
2013-04-01 11:21:00,65.0,51.0,30.14,South,189,2.0,7.0,61,0.00,,,0.02,,2013-04-01 18:21:00,
2013-04-01 11:32:00,66.0,52.0,30.14,SSW,197,3.0,10.0,61,0.00,,,0.02,,2013-04-01 18:32:00,
2013-04-01 11:42:00,66.0,52.0,30.14,SSW,197,3.0,10.0,61,0.00,,,0.02,,2013-04-01 18:42:00,
2013-04-01 11:52:00,65.0,53.0,30.13,WSW,240,4.0,8.0,65,0.00,,,0.02,,2013-04-01 18:52:00,
2013-04-01 12:02:00,66.0,53.0,30.13,SSW,198,4.0,11.0,63,0.00,,,0.02,,2013-04-01 19:02:00,
2013-04-01 12:12:00,66.0,53.0,30.13,SSW,198,4.0,11.0,63,0.00,,,0.02,,2013-04-01 19:12:00,
2013-04-01 12:22:00,67.0,52.0,30.12,SSW,212,3.0,9.0,59,0.00,,,0.02,,2013-04-01 19:22:00,
2013-04-01 12:31:00,67.0,51.0,30.12,SW,235,5.0,11.0,57,0.00,,,0.02,,2013-04-01 19:31:00,
2013-04-01 12:42:00,67.0,51.0,30.12,SW,235,5.0,11.0,57,0.00,,,0.02,,2013-04-01 19:42:00,
2013-04-01 12:53:00,69.0,53.0,30.12,South,184,5.0,10.0,57,0.00,,,0.02,,2013-04-01 19:53:00,
2013-04-01 13:01:00,68.0,52.0,30.11,WSW,249,6.0,15.0,57,0.00,,,0.02,,2013-04-01 20:01:00,
2013-04-01 13:12:00,68.0,52.0,30.11,WSW,249,6.0,15.0,57,0.00,,,0.02,,2013-04-01 20:12:00,
2013-04-01 13:22:00,67.0,54.0,30.11,SSW,207,6.0,15.0,62,0.00,,,0.02,,2013-04-01 20:22:00,
2013-04-01 13:32:00,67.0,54.0,30.11,South,180,6.0,10.0,64,0.00,,,0.02,,2013-04-01 20:32:00,
2013-04-01 13:42:00,67.0,54.0,30.11,South,180,6.0,10.0,64,0.00,,,0.02,,2013-04-01 20:42:00,
2013-04-01 13:52:00,67.0,55.0,30.11,South,184,5.0,15.0,65,0.00,,,0.02,,2013-04-01 20:52:00,
2013-04-01 14:02:00,67.0,55.0,30.11,SW,217,5.0,15.0,66,0.00,,,0.02,,2013-04-01 21:02:00,
2013-04-01 14:11:00,67.0,55.0,30.11,SW,217,5.0,15.0,66,0.00,,,0.02,,2013-04-01 21:11:00,
2013-04-01 14:22:00,67.0,54.0,30.10,WSW,240,7.0,14.0,64,0.00,,,0.02,,2013-04-01 21:22:00,
2013-04-01 14:32:00,68.0,55.0,30.09,WSW,242,4.0,14.0,63,0.00,,,0.02,,2013-04-01 21:32:00,
2013-04-01 14:43:00,68.0,55.0,30.09,WSW,242,4.0,14.0,63,0.00,,,0.02,,2013-04-01 21:43:00,
2013-04-01 14:53:00,68.0,54.0,30.09,WSW,239,6.0,13.0,61,0.00,,,0.02,,2013-04-01 21:53:00,
2013-04-01 15:02:00,66.0,53.0,30.09,South,184,5.0,12.0,64,0.00,,,0.02,,2013-04-01 22:02:00,
2013-04-01 15:12:00,66.0,53.0,30.09,South,184,5.0,12.0,64,0.00,,,0.02,,2013-04-01 22:12:00,
2013-04-01 15:22:00,67.0,54.0,30.09,WSW,257,5.0,12.0,63,0.00,,,0.01,,2013-04-01 22:22:00,
2013-04-01 15:32:00,66.0,53.0,30.07,SSW,205,6.0,13.0,63,0.00,,,0.01,,2013-04-01 22:32:00,
2013-04-01 15:42:00,66.0,53.0,30.07,SSW,205,6.0,13.0,63,0.00,,,0.01,,2013-04-01 22:42:00,
2013-04-01 15:52:00,66.0,53.0,30.07,SW,232,4.0,12.0,64,0.00,,,0.01,,2013-04-01 22:52:00,
2013-04-01 16:02:00,65.0,53.0,30.07,SSW,210,5.0,11.0,65,0.00,,,0.01,,2013-04-01 23:02:00,
2013-04-01 16:11:00,65.0,53.0,30.07,SSW,210,5.0,11.0,65,0.00,,,0.01,,2013-04-01 23:11:00,
2013-04-01 16:22:00,65.0,53.0,30.07,SSW,208,3.0,12.0,66,0.00,,,0.00,,2013-04-01 23:22:00,
2013-04-01 16:32:00,65.0,54.0,30.07,SSW,196,4.0,15.0,68,0.00,,,0.00,,2013-04-01 23:32:00,
2013-04-01 16:42:00,65.0,54.0,30.07,SSW,196,4.0,15.0,68,0.00,,,0.00,,2013-04-01 23:42:00,
2013-04-01 16:53:00,64.0,54.0,30.07,South,184,3.0,12.0,70,0.00,,,0.00,,2013-04-01 23:53:00,
2013-04-01 17:02:00,64.0,54.0,30.07,SW,215,3.0,8.0,69,0.00,,,0.00,,2013-04-02 00:02:00,
2013-04-01 17:11:00,64.0,54.0,30.07,SW,215,3.0,8.0,69,0.00,,,0.00,,2013-04-02 00:11:00,
2013-04-01 17:21:00,64.0,53.0,30.06,South,185,3.0,9.0,68,0.00,,,0.00,,2013-04-02 00:21:00,
2013-04-01 17:32:00,64.0,52.0,30.07,SW,223,3.0,7.0,66,0.00,,,0.00,,2013-04-02 00:32:00,
2013-04-01 17:42:00,64.0,52.0,30.07,SW,223,3.0,7.0,66,0.00,,,0.00,,2013-04-02 00:42:00,
2013-04-01 17:52:00,64.0,52.0,30.06,South,190,2.0,7.0,66,0.00,,,0.00,,2013-04-02 00:52:00,
2013-04-01 18:01:00,64.0,52.0,30.06,WNW,286,1.0,7.0,66,0.00,,,0.00,,2013-04-02 01:01:00,
2013-04-01 18:11:00,64.0,52.0,30.06,WNW,286,1.0,7.0,66,0.00,,,0.00,,2013-04-02 01:11:00,
2013-04-01 18:21:00,64.0,52.0,30.07,West,261,1.0,6.0,65,0.00,,,0.00,,2013-04-02 01:21:00,
2013-04-01 18:31:00,64.0,52.0,30.07,SW,220,1.0,7.0,66,0.00,,,0.00,,2013-04-02 01:31:00,
2013-04-01 18:42:00,64.0,52.0,30.07,SW,220,1.0,7.0,66,0.00,,,0.00,,2013-04-02 01:42:00,
2013-04-01 18:52:00,63.0,51.0,30.07,SW,219,3.0,8.0,66,0.00,,,0.00,,2013-04-02 01:52:00,
2013-04-01 19:01:00,63.0,52.0,30.07,SW,234,0.0,5.0,67,0.00,,,0.00,,2013-04-02 02:01:00,
2013-04-01 19:11:00,63.0,52.0,30.07,SW,234,0.0,5.0,67,0.00,,,0.00,,2013-04-02 02:11:00,
2013-04-01 19:21:00,62.0,51.0,30.07,WSW,238,1.0,5.0,68,0.00,,,0.00,,2013-04-02 02:21:00,
2013-04-01 19:32:00,62.0,52.0,30.07,WSW,238,0.0,6.0,69,0.00,,,0.00,,2013-04-02 02:32:00,
2013-04-01 19:42:00,62.0,52.0,30.07,WSW,238,0.0,6.0,69,0.00,,,0.00,,2013-04-02 02:42:00,
2013-04-01 19:52:00,62.0,52.0,30.06,WSW,237,1.0,4.0,69,0.00,,,0.00,,2013-04-02 02:52:00,
2013-04-01 20:01:00,62.0,52.0,30.06,WSW,246,1.0,4.0,69,0.00,,,0.00,,2013-04-02 03:01:00,
2013-04-01 20:11:00,62.0,52.0,30.06,WSW,246,1.0,4.0,69,0.00,,,0.00,,2013-04-02 03:11:00,
2013-04-01 20:21:00,62.0,52.0,30.06,SW,230,1.0,4.0,69,0.00,,,0.00,,2013-04-02 03:21:00,
2013-04-01 20:33:00,61.0,51.0,30.06,SW,229,0.0,4.0,70,0.00,,,0.00,,2013-04-02 03:33:00,
2013-04-01 20:42:00,61.0,51.0,30.06,SW,229,0.0,4.0,70,0.00,,,0.00,,2013-04-02 03:42:00,
2013-04-01 20:53:00,61.0,51.0,30.06,SW,228,0.0,4.0,70,0.00,,,0.00,,2013-04-02 03:53:00,
2013-04-01 21:02:00,60.0,51.0,30.05,SW,227,1.0,4.0,73,0.00,,,0.00,,2013-04-02 04:02:00,
2013-04-01 21:12:00,60.0,51.0,30.05,SW,227,1.0,4.0,73,0.00,,,0.00,,2013-04-02 04:12:00,
2013-04-01 21:22:00,60.0,52.0,30.05,SW,227,0.0,3.0,75,0.00,,,0.00,,2013-04-02 04:22:00,
2013-04-01 21:32:00,60.0,52.0,30.05,SW,227,0.0,3.0,75,0.00,,,0.00,,2013-04-02 04:32:00,
2013-04-01 21:42:00,60.0,52.0,30.05,SW,227,0.0,3.0,75,0.00,,,0.00,,2013-04-02 04:42:00,
2013-04-01 21:53:00,58.0,51.0,30.05,SW,228,0.0,2.0,78,0.00,,,0.00,,2013-04-02 04:53:00,
2013-04-01 22:01:00,58.0,51.0,30.06,SW,228,0.0,0.0,78,0.00,,,0.00,,2013-04-02 05:01:00,
2013-04-01 22:12:00,58.0,51.0,30.06,SW,228,0.0,0.0,78,0.00,,,0.00,,2013-04-02 05:12:00,
2013-04-01 22:22:00,57.0,51.0,30.06,SW,228,0.0,0.0,80,0.00,,,0.00,,2013-04-02 05:22:00,
2013-04-01 22:32:00,57.0,51.0,30.06,SW,228,0.0,0.0,80,0.00,,,0.00,,2013-04-02 05:32:00,
2013-04-01 22:42:00,57.0,51.0,30.06,SW,228,0.0,0.0,80,0.00,,,0.00,,2013-04-02 05:42:00,
2013-04-01 22:52:00,56.0,51.0,30.06,SW,228,0.0,0.0,82,0.00,,,0.00,,2013-04-02 05:52:00,
2013-04-01 23:02:00,55.0,50.0,30.06,SW,228,0.0,0.0,83,0.00,,,0.00,,2013-04-02 06:02:00,
2013-04-01 23:12:00,55.0,50.0,30.06,SW,228,0.0,0.0,83,0.00,,,0.00,,2013-04-02 06:12:00,
2013-04-01 23:21:00,54.0,49.0,30.06,SW,228,0.0,0.0,83,0.00,,,0.00,,2013-04-02 06:21:00,
2013-04-01 23:31:00,53.0,48.0,30.05,SW,228,0.0,0.0,84,0.00,,,0.00,,2013-04-02 06:31:00,
2013-04-01 23:42:00,53.0,48.0,30.05,SW,228,0.0,0.0,84,0.00,,,0.00,,2013-04-02 06:42:00,
2013-04-01 23:52:00,53.0,48.0,30.06,SW,228,0.0,0.0,84,0.00,,,0.00,,2013-04-02 06:52:00,